Regional Weather Roundup
Issued by NWS

Home | Current Version | Previous Version | Text Only | Print | Product List | Glossary On
Versions: 1 2 3 4 5 6 7 8 9 10 11 12 13 14 15 16 17 18 19 20 21 22 23 24 25 26 27 28 29 30 31 32 33 34 35 36 37 38 39 40 41 42 43 44 45 46 47 48 49 50
000
ASUS44 KMEG 080300
RWRTN
TENNESSEE HOURLY STATE WEATHER ROUNDUP
NATIONAL WEATHER SERVICE MEMPHIS TN
1000 PM CDT TUE JUL 07 2015

TNZ002-004-019-021-049-052-054-088>092-080400-
WEST TENNESSEE

CITY           SKY/WX    TMP DP  RH WIND       PRES   REMARKS
MEMPHIS INTL   CLOUDY    82  74  76 S7        30.05R
NWS MEMPHIS      N/A     83 N/A N/A MISG        N/A
JACKSON        CLOUDY    77  70  79 NW6       30.08R
DYERSBURG        N/A    N/A N/A N/A MISG        N/A
PARIS          CLOUDY    70  70 100 W9        30.09R
LEXINGTON      CLEAR     77  72  83 CALM      30.08R
$$

TNZ008-025-027-028-033-062-065-066-080400-
NORTH MIDDLE TENNESSEE

CITY           SKY/WX    TMP DP  RH WIND       PRES   REMARKS
NASHVILLE      CLOUDY    73  73 100 S3        30.09R
CLARKSVILLE    LGT RAIN  71  70  96 S6        30.10R FOG
COOKEVILLE     CLEAR     73  72  94 S3        30.12S
CROSSVILLE     HVY RAIN  75  68  78 MISG      30.19R
$$

TNZ061-075-076-078-094-096-097-080400-
SOUTH MIDDLE TENNESSEE

CITY           SKY/WX    TMP DP  RH WIND       PRES   REMARKS
FAYETTEVILLE   CLEAR     79  70  73 S3        30.13R
TULLAHOMA        N/A     75  70  83 S5        30.14R
WINCHESTER     CLEAR     75  72  88 SE5       30.14R
COLUMBIA       CLEAR     81  73  78 SW8       30.09R
SHELBYVILLE    CLEAR     79  73  83 CALM        N/A
$$

TNZ017-018-042-046-047-080400-
NORTHEAST TENNESSEE

CITY           SKY/WX    TMP DP  RH WIND       PRES   REMARKS
TRI CITIES     CLOUDY    74  69  85 CALM      30.14R
ELIZABETHTON   CLEAR     70  66  88 NW3       30.16R
$$

TNZ012-013-036-069-073-074-080400-
CENTRAL EAST TENNESSEE

CITY           SKY/WX    TMP DP  RH WIND       PRES   REMARKS
KNOXVILLE      MOCLDY    80  69  69 SW12      30.11R
OAK RIDGE      CLOUDY    79  69  71 CALM      30.12R
GATLINBURG     CLEAR     73  66  78 CALM      30.12R
$$

TNZ083-085-099-080400-
SOUTHEAST TENNESSEE

CITY           SKY/WX    TMP DP  RH WIND       PRES   REMARKS
CHATTANOOGA    MOCLDY    81  72  74 S5        30.13R
$$

SKY/WX REPORTED AS FAIR MEANS FEW OR NO CLOUDS BELOW
12 THOUSAND FEET.



USA.gov is the U.S. government's official web portal to all federal, state and local government web resources and services.